INTELSAT 36 (IS-36)

Last updated on Fri Jul 11 2025 00:02:44 GMT+0000 (Coordinated Universal Time)

1 41747U 16053A 25191.01850367 -.00000011 00000+0 00000+0 0 9997 2 41747 0.0117 30.9156 0001867 317.3547 15.0769 1.00271197 32517
UTC large
Height (km)
Speed (km/s)
/
Latitude / Longitude
Inclination (degrees)
Orbital Period (minutes)
Azimuth
Elevation
Range (km)
Doppler Factor

Next 0 passes for location: London (51.5072 / 0.1276)

Sorry there are no passes over London.